Probability
0 0 0 0 0 0 0 0 0 0 0 0 0 0 0 0 0 0 0 0 0 0 0 0 1 2 2 2 2 1 0 0 0 0 0 0 0 0 0 0 0 0 0 0 0 0 0 0 0
0 0 0 0 0 0 0 0 0 0 0 0 0 0 0 0 0 0 0 0 0 0 0 0 0 1 1 1 1 0 0 0 0 0 0 0 0 0 0 0 0 0 0 0 0 0 0 0 0
0 0 0 0 0 0 0 0 0 0 0 0 0 0 0 0 0 0 0 0 0 0 0 0 0 0 0 0 0 0 0 0 0 0 0 0 0 0 0 0 0 0 0 0 0 0 0 0 0
0 0 0 0 0 0 0 0 0 0 0 0 0 0 0 0 0 0 0 0 0 0 0 0 0 0 0 0 0 0 0 0 0 0 0 0 0 0 0 0 0 0 0 0 0 0 0 0 0
0 0 0 0 0 0 0 0 0 0 0 0 0 0 0 0 0 0 0 0 0 0 0 0 0 0 0 0 0 0 0 0 0 0 0 0 0 0 0 0 0 0 0 0 0 0 0 0 0
0 0 0 0 0 0 0 0 0 0 0 0 0 0 0 0 0 0 0 0 0 0 0 0 0 0 0 0 0 0 0 0 0 0 0 0 0 0 0 0 0 0 0 0 0 0 0 0 0
0 0 0 0 0 0 0 0 0 0 0 0 0 0 0 0 0 0 0 0 0 0 0 0 0 0 0 0 0 0 0 0 0 0 0 0 0 0 0 0 0 0 0 0 0 0 0 0 0
0 0 0 0 0 0 0 0 0 0 0 0 0 0 0 0 0 0 0 0 0 1 0 0 0 0 0 0 0 0 0 0 0 0 0 0 0 0 0 0 0 0 0 0 0 0 0 0 0
0 0 0 0 0 0 0 0 0 0 0 0 0 0 0 0 0 0 0 0 0 0 0 0 0 0 0 0 0 0 0 0 0 0 0 0 0 0 0 0 0 0 0 0 0 0 0 0 0
0 0 0 0 0 0 0 0 0 0 0 0 0 0 0 0 1 1 1 0 0 0 0 0 1 0 0 0 0 0 0 0 0 1 1 0 0 0 0 0 0 0 0 0 0 0 0 0 0
0 0 0 0 0 0 0 0 0 0 0 0 0 0 0 1 2 2 1 0 0 0 0 0 0 0 0 0 0 0 1 1 1 1 1 0 0 0 0 0 0 0 0 0 0 0 0 0 0
0 0 0 0 0 0 0 0 0 0 0 0 0 0 0 1 2 2 1 0 0 0 0 0 0 0 0 0 0 1 1 1 1 1 1 0 0 0 0 0 0 0 0 0 0 0 0 0 0
0 0 0 0 0 0 0 0 0 0 0 0 0 0 0 1 2 2 1 0 0 0 0 0 0 0 0 0 0 1 2 3 1 0 0 0 0 0 0 0 0 0 0 0 0 0 0 0 0
0 0 0 0 0 0 0 0 0 0 0 0 0 0 0 1 2 3 2 1 1 1 1 0 0 0 0 0 0 0 1 2 2 0 0 0 0 0 0 0 0 0 0 0 0 0 0 0 0
0 0 0 0 0 0 0 0 0 0 0 0 0 0 0 0 1 2 3 3 2 2 2 1 0 0 0 0 0 0 0 1 1 0 0 0 0 0 0 0 0 0 0 0 0 0 0 0 0
0 0 0 0 0 0 0 0 0 0 0 0 0 0 0 0 0 1 2 3 3 3 3 2 1 0 0 0 0 0 0 0 0 1 1 0 0 0 0 0 0 0 0 0 0 0 0 0 0
0 0 0 0 0 0 0 0 0 0 0 0 0 0 0 0 0 0 1 2 2 2 2 2 2 1 0 0 0 0 0 0 0 1 2 1 0 0 0 0 0 0 0 0 0 0 0 0 0
0 0 0 0 0 0 0 0 0 0 0 0 0 0 0 1 0 0 0 1 1 1 1 1 1 1 0 0 0 0 0 1 1 2 3 3 2 1 0 1 1 0 0 0 0 0 0 0 0
0 0 0 0 0 0 0 0 0 0 0 0 0 0 0 0 0 0 0 0 0 0 0 0 0 0 0 0 0 0 1 3 3 3 4 5 5 3 2 2 2 1 0 0 0 0 0 0 0
0 0 0 0 0 0 0 0 0 0 0 0 0 0 0 0 0 0 0 0 0 0 0 0 0 0 0 0 0 1 3 4 4 3 3 5 5 4 3 3 3 2 1 0 0 0 0 0 0
0 0 0 0 0 0 0 0 0 0 0 0 0 0 0 0 0 0 0 0 0 0 0 0 0 0 0 0 0 2 3 4 4 3 3 3 3 3 3 2 2 2 1 0 0 0 0 0 0
0 0 0 0 0 0 0 0 0 0 0 0 0 0 0 0 0 0 0 0 0 0 0 0 0 0 0 1 1 2 3 3 4 4 3 2 1 1 1 1 1 1 0 0 0 0 0 0 0
0 0 0 0 0 0 0 0 0 0 0 0 0 0 0 0 0 0 0 0 0 0 0 0 0 0 0 1 2 2 3 4 5 5 3 1 0 0 0 0 0 0 0 0 0 0 0 0 0
0 0 0 0 0 0 0 0 0 0 0 0 0 0 0 0 0 0 0 0 0 0 0 0 0 0 0 1 1 1 2 5 6 4 2 0 0 0 0 0 0 0 0 0 0 0 0 0 0
0 0 0 0 0 0 0 0 0 0 0 0 0 0 0 0 0 0 0 0 0 0 0 0 0 0 0 0 0 0 1 4 4 2 1 0 0 0 0 0 0 0 0 0 0 0 0 0 0
0 0 0 0 0 0 0 0 0 0 0 0 0 0 0 0 0 0 0 0 0 0 0 0 0 0 0 0 0 0 0 1 2 1 0 0 0 0 0 0 0 0 0 0 0 0 0 0 0
0 0 0 0 0 0 0 0 0 0 0 0 0 0 0 0 0 0 0 0 0 0 0 0 0 0 0 0 0 0 0 1 2 2 1 1 1 0 0 0 0 0 0 0 0 0 0 0 0
0 0 0 0 0 0 0 0 0 0 0 0 0 0 0 0 0 0 0 0 0 0 0 0 0 0 0 0 0 0 0 1 2 3 3 2 2 1 0 0 0 0 0 0 0 0 0 0 0
0 0 0 0 0 0 0 0 0 0 0 0 0 0 0 0 0 0 0 0 0 0 0 0 0 0 0 0 0 0 0 1 3 3 3 3 3 2 1 0 0 0 0 0 0 0 0 0 0
0 0 0 0 0 0 0 0 0 0 0 0 0 0 0 0 0 0 0 0 0 0 0 0 0 0 0 0 0 0 1 2 3 3 3 3 3 2 1 0 0 0 0 0 0 0 0 0 0
Wind_Speed
9 4 3 3 3 2 3 2 1 2 2 3 2 1 2 4 4 4 4 4 6 8 9 10 8 9 9 9 9 8 8 9 8 8 9 9 9 9 9 9 9 9 9 9 9 9 9 9 8
7 4 3 2 4 4 4 2 2 2 3 3 3 3 3 5 5 4 3 4 7 9 9 9 8 8 9 9 8 8 8 8 8 8 9 8 8 9 9 9 8 8 9 9 9 9 9 8 7
4 2 2 1 2 2 4 3 3 3 3 2 3 3 4 5 4 3 3 6 8 8 8 9 8 8 8 8 8 8 8 8 8 8 8 8 8 8 8 8 8 8 8 8 8 8 8 7 7
3 1 1 2 3 1 2 2 1 3 4 3 2 5 5 6 5 3 5 7 8 8 7 9 7 8 8 8 7 7 8 8 7 7 7 7 7 7 7 7 7 7 7 7 7 7 7 6 6
1 1 3 4 3 2 2 3 1 2 2 3 2 4 5 6 6 5 6 7 7 8 7 8 7 7 7 7 7 7 7 7 6 7 6 7 7 6 6 6 6 5 5 5 5 6 5 5 5
1 2 5 6 6 3 1 2 1 3 3 3 2 3 5 5 6 5 6 6 6 6 6 6 6 5 5 5 5 5 6 6 5 5 5 6 6 5 5 5 5 4 4 4 4 4 4 3 3
2 3 5 6 5 3 0 1 1 2 3 3 2 2 4 4 4 4 6 6 6 6 5 4 5 5 4 4 4 4 4 5 5 4 5 4 4 4 4 4 3 3 3 2 3 3 2 2 2
1 2 4 5 6 3 1 1 2 3 3 4 3 2 2 2 3 5 6 6 5 5 4 4 3 3 4 4 4 4 4 4 4 4 3 3 3 3 3 2 2 2 2 1 1 1 1 0 1
1 4 6 5 4 2 1 2 3 4 5 5 5 5 4 4 5 7 6 5 4 4 3 2 2 2 2 3 3 3 3 4 3 3 3 2 2 2 2 1 1 1 0 0 0 0 1 2 2
1 4 5 1 1 2 3 2 2 3 4 4 5 7 6 5 6 6 5 4 3 2 1 1 1 2 2 1 2 2 2 2 2 1 1 1 0 1 1 1 0 1 1 2 2 2 3 4 3
1 2 3 3 3 2 3 4 4 1 2 2 2 3 4 4 5 4 4 3 2 2 1 1 1 1 1 1 1 1 1 1 1 0 0 0 0 1 1 1 1 2 3 3 2 3 3 3 3
4 4 3 3 3 2 2 2 4 4 4 5 4 5 5 4 4 3 2 1 1 1 1 1 0 1 1 1 1 1 1 1 0 0 0 1 1 1 1 1 2 2 2 3 3 3 3 4 5
5 4 5 5 5 5 5 4 3 4 5 5 5 6 5 4 3 3 2 2 1 1 1 1 0 0 0 1 1 1 1 1 1 1 1 1 1 1 1 1 1 2 2 3 3 4 4 5 5
5 5 4 3 3 3 5 4 2 4 4 4 6 6 5 4 4 4 3 3 2 2 2 1 1 0 0 0 1 1 1 1 1 1 1 2 2 2 2 2 2 2 2 3 3 5 5 5 5
5 5 3 2 1 0 2 2 1 3 3 4 4 4 4 5 4 4 3 3 3 3 2 2 1 1 1 0 1 1 1 1 1 1 2 2 2 3 3 2 2 2 3 3 3 4 4 4 5
3 3 2 1 2 1 3 3 1 2 2 2 3 3 3 4 4 3 3 3 3 3 3 2 2 2 2 1 1 1 1 1 1 2 2 2 3 3 2 2 3 3 3 2 3 4 4 4 5
2 3 3 1 2 0 2 2 1 2 2 2 2 2 3 3 4 4 4 4 3 3 3 3 3 3 2 2 1 2 2 2 2 2 2 3 3 3 2 2 3 3 2 2 3 3 4 5 5
4 4 3 3 1 2 3 3 1 1 2 2 1 1 2 3 4 4 4 4 3 3 3 3 3 3 2 2 2 2 2 2 2 2 3 4 3 4 3 2 3 3 3 3 3 4 4 4 5
3 4 3 2 0 1 3 3 3 2 1 1 1 1 2 2 3 4 4 4 4 4 4 3 3 3 2 2 1 1 2 2 2 3 4 4 4 4 4 3 4 4 3 4 4 4 4 4 4
4 4 2 1 0 1 2 3 3 3 2 1 2 1 2 2 3 5 4 4 4 4 4 3 3 2 2 1 1 1 1 1 2 3 4 4 4 4 3 4 3 4 3 4 5 4 4 3 3
1 2 2 2 0 1 1 3 3 3 2 1 1 2 2 1 2 3 4 4 4 4 4 3 3 2 2 2 1 2 1 1 2 3 4 5 5 4 4 4 4 4 3 4 5 5 5 4 3
1 1 2 2 2 2 3 4 4 4 4 3 2 2 2 2 2 2 3 4 4 4 4 4 4 3 2 1 1 2 1 2 2 3 3 4 5 5 5 5 5 4 4 4 5 5 5 5 5
1 1 2 2 1 2 2 4 3 3 5 5 4 3 2 2 2 2 2 3 4 4 4 4 4 4 3 2 1 1 1 2 2 2 3 3 4 5 5 5 5 5 4 5 5 5 5 4 5
2 2 2 1 2 3 4 5 4 4 5 4 3 3 3 2 1 2 3 3 4 4 4 4 4 4 4 3 3 2 2 3 3 4 4 4 3 4 6 6 5 5 5 5 5 5 5 4 5
1 2 2 2 3 3 2 5 5 2 2 3 3 2 2 1 1 2 3 3 4 4 4 4 4 4 4 4 4 4 3 3 3 3 3 4 4 4 6 6 5 5 5 5 5 5 5 5 5
1 2 1 2 3 1 2 6 3 1 1 1 1 2 1 0 1 2 2 3 3 3 4 4 3 4 4 4 4 4 3 2 2 3 3 3 3 4 5 5 5 5 6 5 5 4 5 5 5
2 1 1 1 1 2 4 4 4 1 1 1 2 2 2 1 1 2 2 2 3 3 3 3 3 3 4 4 4 4 4 3 3 3 3 3 3 3 4 4 5 5 5 5 5 4 5 5 5
1 2 2 2 2 3 3 4 3 3 4 3 3 3 2 1 1 2 2 2 2 2 3 3 4 3 4 4 4 3 4 3 3 3 3 3 4 4 4 4 4 5 5 5 5 4 5 5 5
2 2 1 2 1 3 3 2 1 3 4 5 5 4 3 2 2 2 1 1 2 2 2 3 3 4 4 4 4 3 3 3 3 3 4 4 4 4 4 4 4 4 5 5 5 5 5 5 6
2 2 3 2 2 2 3 4 1 3 4 4 4 4 3 3 2 2 2 2 1 2 2 2 2 3 3 4 4 3 3 3 3 3 3 4 4 4 5 4 4 5 5 5 5 5 6 6 6
Wind_Direction
323 319 270 249 228 188 143 103 69 97 87 54 59 71 65 41 10 43 50 135 133 144 146 147 140 136 131 126 125 122 120 119 117 118 117 112 108 107 106 101 101 101 100 97 93 92 89 88 85
321 307 254 260 240 186 144 116 108 59 72 89 88 86 80 70 40 58 92 132 141 144 147 146 132 133 132 129 129 127 121 120 116 113 115 113 111 106 107 104 104 102 98 95 93 90 88 83 81
305 293 294 241 226 203 133 104 79 68 97 90 95 62 49 46 44 59 87 140 141 141 144 135 130 133 133 130 129 127 120 115 113 110 112 110 111 109 105 104 104 102 98 96 93 89 86 82 76
286 212 221 218 171 106 60 65 60 113 108 55 95 99 83 36 5 50 116 141 138 137 138 134 131 134 134 132 130 127 123 119 113 113 109 110 111 109 107 105 103 100 98 95 92 90 87 82 75
267 229 198 193 188 140 63 29 80 103 100 67 84 103 88 34 28 83 119 133 135 136 137 136 126 129 132 132 131 129 126 122 118 116 111 107 106 106 109 109 106 103 100 98 96 93 89 83 74
190 205 207 200 185 164 87 34 117 90 83 72 60 100 87 43 50 82 111 122 124 125 130 133 117 122 126 127 128 130 128 124 121 118 118 115 106 110 110 108 105 104 103 103 106 102 93 80 68
206 196 215 202 190 184 60 55 63 99 86 50 5 99 96 47 50 95 106 110 113 116 123 131 138 138 133 123 120 123 119 117 116 112 106 111 112 110 108 108 107 104 101 100 114 110 103 85 59
286 182 200 205 202 203 43 90 48 28 69 45 22 63 82 40 76 101 99 101 106 110 116 122 133 142 150 146 118 111 108 104 104 102 96 112 128 131 118 139 114 107 97 93 119 107 105 6 334
246 201 205 204 199 184 119 134 76 57 87 72 50 34 40 95 115 102 95 93 94 92 102 118 128 137 141 141 127 137 121 104 108 112 103 146 185 179 166 141 91 105 52 1 45 299 313 280 227
211 204 210 186 145 128 92 77 84 115 88 66 54 44 66 101 112 107 105 110 111 107 103 113 152 161 151 143 152 156 156 150 151 144 151 197 326 352 321 91 205 248 259 250 251 266 256 262 265
108 164 146 115 95 102 93 62 46 140 76 39 47 68 86 96 95 101 107 118 130 136 106 92 176 174 159 156 173 163 171 168 168 164 216 285 306 323 303 298 243 247 248 254 243 242 262 277 285
107 92 97 91 63 70 70 91 72 48 35 25 48 93 100 94 97 101 102 97 103 90 65 6 238 174 178 185 188 182 184 185 183 201 277 264 262 280 283 288 308 303 286 280 278 275 278 278 278
114 104 83 72 68 66 78 79 80 42 17 37 68 85 91 87 83 77 71 61 48 34 13 350 325 186 219 221 216 197 208 221 232 263 275 278 278 281 276 283 291 295 299 288 284 282 284 281 278
119 115 97 70 69 59 76 63 62 10 17 50 66 70 70 66 58 51 40 30 17 7 1 3 10 263 201 245 263 241 236 251 269 284 299 286 288 288 282 285 291 294 295 296 292 294 289 287 287
123 121 94 31 23 87 106 60 26 2 35 53 54 55 58 54 51 42 27 15 5 4 6 15 7 18 30 325 302 301 292 284 305 309 313 312 304 296 287 283 290 297 297 296 295 295 291 291 289
150 161 174 36 356 332 200 202 59 17 54 53 39 39 49 47 43 32 20 12 9 6 7 14 26 29 34 18 6 18 14 16 7 353 343 336 325 316 303 302 303 305 302 305 306 304 294 291 295
153 183 196 180 15 52 180 186 81 43 53 42 27 29 38 34 29 22 17 16 10 7 10 19 24 24 27 25 32 44 39 38 24 10 3 355 349 340 321 313 312 311 304 306 308 309 303 297 300
178 182 196 212 39 111 154 183 226 29 37 14 10 30 32 20 11 9 11 13 14 12 17 23 25 21 18 30 28 35 38 35 26 16 8 3 357 350 339 332 328 325 315 312 305 294 299 297 302
153 163 167 208 88 182 186 210 252 267 328 336 345 14 24 4 10 14 14 14 13 14 15 12 17 13 16 24 16 6 12 17 18 15 12 5 3 1 357 346 335 333 325 321 314 303 300 301 309
126 139 175 161 43 225 209 243 256 253 253 276 292 310 344 354 16 18 16 22 17 6 2 357 356 0 8 6 2 334 328 355 12 8 8 2 1 357 357 353 342 339 330 326 324 320 312 312 318
135 181 187 175 192 172 227 238 231 234 230 254 287 299 318 344 2 10 16 19 19 8 354 347 344 343 356 1 22 26 24 15 15 7 3 358 356 352 355 349 340 339 336 329 327 325 314 304 305
217 250 199 189 200 193 250 250 224 231 236 238 250 275 298 314 337 358 8 12 15 360 351 348 349 349 350 11 35 36 18 347 334 341 349 353 357 359 357 353 347 340 340 336 329 329 316 308 303
201 239 209 220 232 235 227 248 237 215 241 240 232 244 268 290 312 345 1 358 2 2 1 357 359 359 356 3 7 346 328 324 331 345 356 357 353 358 356 352 347 343 339 336 333 331 329 322 314
193 169 169 194 222 236 227 242 250 220 241 244 233 240 258 275 313 350 360 4 6 7 12 12 12 12 5 10 14 9 357 350 353 354 351 346 345 350 355 350 349 348 345 344 344 342 339 338 329
202 187 177 194 217 234 197 237 254 247 260 249 229 226 248 278 313 336 346 356 358 1 2 13 16 13 11 19 20 14 4 355 351 346 349 344 344 349 351 351 351 352 350 347 348 348 344 340 334
204 247 228 228 232 236 204 240 259 354 304 268 213 203 224 273 327 324 328 332 338 349 352 0 11 14 14 14 13 10 3 356 352 355 352 347 341 347 345 347 349 350 350 348 350 347 343 338 331
160 164 359 49 41 250 238 263 271 227 222 199 201 207 221 257 303 313 317 325 334 347 352 357 7 15 12 9 9 8 7 5 357 353 350 344 345 342 345 346 348 348 349 348 347 344 338 332 328
28 142 162 194 231 255 269 256 257 238 241 223 223 227 234 257 284 302 323 336 342 357 5 13 14 10 5 8 5 1 358 357 353 352 356 351 344 341 343 346 346 344 344 342 339 335 333 329 324
150 158 168 154 271 267 275 266 310 263 253 241 234 231 233 244 263 278 287 312 335 353 1 7 14 15 10 5 358 358 353 356 2 1 354 348 342 340 341 339 340 339 337 336 332 330 325 323 323
245 214 194 216 208 239 274 277 67 282 268 246 237 231 235 242 252 250 254 282 322 340 343 353 5 3 355 352 355 357 352 350 354 352 346 341 338 340 341 339 339 337 335 336 332 328 327 324 324